User: anonymous   Login
Location: Del Oro Observatory
(38.3044°N, 104.8119°W)
Time: 12:39:56
(UTC-07:00)
Language:

Cosmos 1602 Rocket - Orbit

View from above orbital plane
View from above orbital plane
View from above satellite
View from above satellite

Ground track
Ground track

The orbit data is extracted from the following two-line orbital elements,

1 15332U 84105B   15031.77163815  .00000408  00000-0  47170-4 0  8758
2 15332 082.5343 278.7190 0020774 354.2332 068.7796 14.82958376638011
Epoch (UTC): 31 January 2015 18:31:09
Eccentricity: 0.0020774
inclination: 82.5343°
perigee height: 605 km
apogee height: 634 km
right ascension of ascending node: 278.7190°
argument of perigee: 354.2332°
revolutions per day: 14.82958376
mean anomaly at epoch: 68.7796°
orbit number at epoch: 63801

The dashed part of the orbit path shows where the satellite is in the earth's shadow,  

DLR